Marshfield, WI

5:41 PM CDT on April 24, 2017 (GMT -0500)
Marshfield Municipal

Weather History for KMFI - December, 2012

Change the Weather History Date:

Monday, December 31, 2012

  Actual Average Record
Temperature  
Mean Temperature 8 °F -  
Max Temperature 19 °F 24 °F 50 °F (1965)
Min Temperature -2 °F 5 °F -27 °F (1967)
Degree Days  
Heating Degree Days 56    
Moisture  
Dew Point 8 °F    
Average Humidity 78    
Maximum Humidity 92    
Minimum Humidity 62    
Precipitation  
Precipitation 0.00 in - - ()
Sea Level Pressure  
Sea Level Pressure 30.04 in    
Wind  
Wind Speed 10 mph (WNW)    
Max Wind Speed 20 mph    
Max Gust Speed 23 mph    
Visibility 7 miles    
Events Snow    
Averages and records for this station are not official NWS values.
T = Trace of Precipitation, MM = Missing Value Source: NWS Daily Summary

Daily Weather History Graph

Daily Weather History Graph

Search for Another Location

Airport or City:

Trip Planner

Search our weather history database for the weather conditions in past years. The results will help you decide how hot, cold, wet, or windy it might be!

Date:

Astronomy

Dec. 31, 2012 Rise Set
Actual Time 7:37 AM CST 4:30 PM CST
Civil Twilight 7:04 AM CST 5:03 PM CST
Nautical Twilight 6:27 AM CST 5:40 PM CST
Astronomical Twilight 5:52 AM CST 6:16 PM CST
Moon 8:10 PM CST (12/31) 9:11 AM CST (12/31)
Length of Visible Light 9h 59m
Length of Day
8h 52m
Waning Gibbous, 90% of the Moon is Illuminated
Dec 31
Waning Gibbous
Jan 4
Last Quarter
Jan 11
New
Jan 18
First Quarter
Jan 26
Full

Hourly Weather History & Observations

Time (CST) Temp. Windchill Dew Point Humidity Pressure Visibility Wind Dir Wind Speed Gust Speed Precip Events Conditions
12:45 AM 19.4 °F 12.8 °F 15.8 °F 86% 29.86 in 8.0 mi WSW 4.6 mph - N/A   Scattered Clouds
12:54 AM 19.0 °F 12.3 °F 15.1 °F 85% 29.94 in 8.0 mi WSW 4.6 mph - N/A   Mostly Cloudy
1:04 AM 19.4 °F 11.5 °F 15.8 °F 86% 29.86 in 8.0 mi WSW 5.8 mph - N/A   Partly Cloudy
1:54 AM 19.0 °F 10.0 °F 15.1 °F 85% 29.94 in 7.0 mi WSW 6.9 mph - N/A   Clear
2:54 AM 16.0 °F 6.3 °F 14.0 °F 92% 29.95 in 6.0 mi West 6.9 mph - N/A   Clear
3:26 AM 17.6 °F 6.4 °F 14.0 °F 86% 29.89 in 6.0 mi West 9.2 mph - N/A   Partly Cloudy
3:54 AM 17.1 °F 4.3 °F 14.0 °F 88% 29.97 in 6.0 mi WNW 11.5 mph - N/A   Partly Cloudy
4:41 AM 15.8 °F 0.9 °F 12.2 °F 86% 29.91 in 6.0 mi WNW 15.0 mph - N/A   Mostly Cloudy
4:54 AM 17.1 °F 2.0 °F 12.9 °F 84% 29.99 in 6.0 mi WNW 16.1 mph - N/A   Overcast
5:54 AM 17.1 °F 1.0 °F 14.0 °F 88% 30.01 in 6.0 mi WNW 18.4 mph 23.0 mph N/A   Overcast
6:54 AM 16.0 °F -0.9 °F 12.9 °F 88% 30.05 in 4.0 mi WNW 19.6 mph - 0.00 in Snow Light Snow
7:33 AM 15.8 °F 2.1 °F 10.4 °F 79% 29.99 in 3.0 mi NW 12.7 mph 23.0 mph 0.00 in Snow Light Snow
7:40 AM 15.8 °F 1.4 °F 12.2 °F 86% 29.99 in 2.0 mi NW 13.8 mph - 0.00 in Snow Light Snow
7:54 AM 15.1 °F -0.1 °F 10.9 °F 84% 30.06 in 2.5 mi NW 15.0 mph 23.0 mph 0.00 in Snow Light Snow
8:26 AM 15.8 °F 0.3 °F 10.4 °F 79% 29.99 in 3.0 mi NW 16.1 mph - 0.00 in Snow Light Snow
8:41 AM 15.8 °F 1.4 °F 10.4 °F 79% 29.98 in 2.5 mi NNW 13.8 mph - 0.00 in Snow Light Snow
8:50 AM 15.8 °F -0.2 °F 10.4 °F 79% 29.99 in 3.0 mi NW 17.3 mph 21.9 mph 0.00 in Snow Light Snow
8:51 AM 16.0 °F 0.6 °F 10.0 °F 77% 30.07 in 3.0 mi NW 16.1 mph 21.9 mph 0.00 in Snow Light Snow
9:54 AM 15.1 °F -1.1 °F 8.1 °F 74% 30.08 in 6.0 mi NW 17.3 mph - 0.00 in Snow Light Snow
10:54 AM 15.1 °F -0.6 °F 7.0 °F 70% 30.11 in 6.0 mi NNW 16.1 mph - 0.00 in Snow Light Snow
11:54 AM 14.0 °F -0.2 °F 5.0 °F 67% 30.10 in 10.0 mi NNW 12.7 mph - 0.00 in   Mostly Cloudy
12:28 PM 14.0 °F -0.8 °F 5.0 °F 67% 30.02 in 10.0 mi NW 13.8 mph - N/A   Scattered Clouds
12:54 PM 14.0 °F -0.2 °F 5.0 °F 67% 30.09 in 10.0 mi NW 12.7 mph - N/A   Partly Cloudy
1:54 PM 14.0 °F 0.5 °F 3.9 °F 64% 30.10 in 10.0 mi NW 11.5 mph - N/A   Clear
2:54 PM 14.0 °F 0.5 °F 3.9 °F 64% 30.11 in 10.0 mi NW 11.5 mph - N/A   Clear
3:54 PM 12.9 °F 0.7 °F 1.9 °F 62% 30.13 in 10.0 mi NW 9.2 mph - N/A   Clear
4:54 PM 10.9 °F 0.2 °F 1.9 °F 67% 30.14 in 10.0 mi WNW 6.9 mph - N/A   Clear
5:54 PM 9.0 °F -4.2 °F 1.0 °F 70% 30.16 in 10.0 mi WNW 9.2 mph - N/A   Clear
6:54 PM 6.1 °F -4.3 °F -0.9 °F 73% 30.17 in 10.0 mi WNW 5.8 mph - N/A   Clear
7:54 PM -2.0 °F -15.4 °F -6.0 °F 83% 30.19 in 10.0 mi NW 6.9 mph - N/A   Clear
10:54 PM -0.9 °F -11.0 °F -6.0 °F 79% 30.24 in 10.0 mi NNW 4.6 mph - N/A   Clear
11:54 PM -0.9 °F -8.9 °F -5.1 °F 83% 30.24 in 10.0 mi WNW 3.5 mph - N/A   Clear